Wetterdaten: Sonntag, 24.06.2018
Datum Zeit Temp. A. Aussen2m Boden Feuchte A. Feuchte 2 Luftdruck Regen Wind Richtung Richtung Sonnenschein
24.06.2018 00:00 15,2 C 15,2 C 10,8 C 71 % 76 % 1021,7 hPa 0,0 l/m 1,8 km/h (1 Bft) W-NW 290 0 min
24.06.2018 00:05 15,3 C 15,2 C 10,8 C 70 % 76 % 1021,7 hPa 0,0 l/m 3,0 km/h (1 Bft) NW 305 0 min
24.06.2018 00:10 15,3 C 15,2 C 10,8 C 71 % 76 % 1021,7 hPa 0,0 l/m 2,4 km/h (1 Bft) W-NW 290 0 min
24.06.2018 00:15 15,2 C 15,2 C 10,8 C 71 % 76 % 1021,7 hPa 0,0 l/m 2,4 km/h (1 Bft) W-NW 290 0 min
24.06.2018 00:20 15,2 C 15,2 C 10,8 C 71 % 76 % 1021,7 hPa 0,0 l/m 1,8 km/h (1 Bft) W-SW 250 0 min
24.06.2018 00:25 15,1 C 15,1 C 10,8 C 71 % 76 % 1021,7 hPa 0,0 l/m 0,6 km/h (0 Bft) W-NW 290 0 min
24.06.2018 00:30 15,0 C 15,1 C 10,8 C 72 % 76 % 1020,7 hPa 0,0 l/m 2,4 km/h (1 Bft) W-SW 250 0 min
24.06.2018 00:35 14,9 C 15,0 C 10,8 C 72 % 76 % 1020,7 hPa 0,0 l/m 4,8 km/h (1 Bft) W 280 0 min
24.06.2018 00:40 14,9 C 15,0 C 10,8 C 72 % 76 % 1020,7 hPa 0,0 l/m 1,8 km/h (1 Bft) W-NW 300 0 min
24.06.2018 00:45 14,9 C 14,9 C 10,8 C 72 % 76 % 1020,7 hPa 0,0 l/m 3,6 km/h (1 Bft) W-NW 300 0 min
24.06.2018 00:50 14,9 C 14,9 C 10,8 C 72 % 76 % 1020,7 hPa 0,0 l/m 3,0 km/h (1 Bft) W-NW 295 0 min
24.06.2018 00:55 14,8 C 14,9 C 10,8 C 72 % 76 % 1020,7 hPa 0,0 l/m 0,0 km/h (0 Bft) W-NW 295 0 min
24.06.2018 01:00 14,7 C 14,9 C 10,8 C 73 % 76 % 1021,8 hPa 0,0 l/m 0,0 km/h (0 Bft) W-SW 250 0 min
24.06.2018 01:05 14,7 C 14,7 C 10,8 C 73 % 76 % 1021,8 hPa 0,0 l/m 0,0 km/h (0 Bft) W-SW 245 0 min
24.06.2018 01:10 14,5 C 14,6 C 10,8 C 74 % 77 % 1021,8 hPa 0,0 l/m 0,0 km/h (0 Bft) W-SW 240 0 min
24.06.2018 01:15 14,4 C 14,5 C 10,8 C 74 % 77 % 1021,8 hPa 0,0 l/m 0,0 km/h (0 Bft) W-SW 240 0 min
24.06.2018 01:20 14,4 C 14,4 C 10,8 C 75 % 78 % 1021,8 hPa 0,0 l/m 0,6 km/h (0 Bft) NO 55 0 min
24.06.2018 01:25 14,4 C 14,4 C 10,8 C 74 % 78 % 1021,8 hPa 0,0 l/m 0,0 km/h (0 Bft) NW 310 0 min
24.06.2018 01:30 14,5 C 14,4 C 10,8 C 74 % 79 % 1021,8 hPa 0,0 l/m 4,2 km/h (1 Bft) N-NO 25 0 min
24.06.2018 01:35 14,7 C 14,5 C 10,8 C 73 % 78 % 1021,8 hPa 0,0 l/m 3,0 km/h (1 Bft) N-NO 15 0 min
24.06.2018 01:40 14,9 C 14,6 C 10,8 C 71 % 78 % 1021,8 hPa 0,0 l/m 4,8 km/h (1 Bft) N 5 0 min
24.06.2018 01:45 15,0 C 14,6 C 10,8 C 71 % 77 % 1020,8 hPa 0,0 l/m 2,4 km/h (1 Bft) NO 50 0 min
24.06.2018 01:50 15,0 C 14,6 C 10,8 C 71 % 77 % 1020,8 hPa 0,0 l/m 1,2 km/h (1 Bft) N-NW 345 0 min
24.06.2018 01:55 14,9 C 14,5 C 10,8 C 71 % 77 % 1020,8 hPa 0,0 l/m 0,0 km/h (0 Bft) NW 325 0 min
24.06.2018 02:00 14,8 C 14,4 C 10,8 C 72 % 78 % 1020,8 hPa 0,0 l/m 0,0 km/h (0 Bft) NW 325 0 min
24.06.2018 02:05 14,6 C 14,4 C 10,8 C 72 % 78 % 1020,8 hPa 0,0 l/m 0,0 km/h (0 Bft) NW 310 0 min
24.06.2018 02:10 14,5 C 14,3 C 10,8 C 72 % 79 % 1020,8 hPa 0,0 l/m 0,0 km/h (0 Bft) W-NW 300 0 min
24.06.2018 02:15 14,4 C 14,2 C 10,8 C 73 % 79 % 1020,8 hPa 0,0 l/m 0,0 km/h (0 Bft) W-NW 295 0 min
24.06.2018 02:20 14,3 C 14,2 C 10,8 C 73 % 79 % 1020,8 hPa 0,0 l/m 1,2 km/h (1 Bft) N-NO 25 0 min
24.06.2018 02:25 14,2 C 14,2 C 10,8 C 73 % 79 % 1020,8 hPa 0,0 l/m 4,2 km/h (1 Bft) NW 325 0 min
24.06.2018 02:30 14,2 C 14,1 C 10,8 C 73 % 79 % 1020,8 hPa 0,0 l/m 2,4 km/h (1 Bft) NW 325 0 min
24.06.2018 02:35 14,3 C 14,2 C 10,8 C 73 % 79 % 1020,8 hPa 0,0 l/m 4,2 km/h (1 Bft) N 355 0 min
24.06.2018 02:40 14,3 C 14,2 C 10,8 C 73 % 78 % 1020,8 hPa 0,0 l/m 1,2 km/h (1 Bft) N-NO 30 0 min
24.06.2018 02:45 14,3 C 14,2 C 10,8 C 73 % 78 % 1020,8 hPa 0,0 l/m 0,0 km/h (0 Bft) S-SO 165 0 min
24.06.2018 02:50 14,3 C 14,1 C 10,8 C 73 % 78 % 1020,8 hPa 0,0 l/m 0,0 km/h (0 Bft) SO 145 0 min
24.06.2018 02:55 14,3 C 14,1 C 10,8 C 73 % 79 % 1020,8 hPa 0,0 l/m 0,0 km/h (0 Bft) SO 145 0 min
24.06.2018 03:00 14,2 C 14,0 C 10,8 C 73 % 78 % 1019,8 hPa 0,0 l/m 2,4 km/h (1 Bft) NO 45 0 min
24.06.2018 03:05 14,3 C 14,1 C 10,8 C 72 % 78 % 1019,8 hPa 0,0 l/m 1,2 km/h (1 Bft) N 350 0 min
24.06.2018 03:10 14,4 C 14,1 C 10,8 C 71 % 79 % 1019,8 hPa 0,0 l/m 0,0 km/h (0 Bft) W-NW 290 0 min
24.06.2018 03:15 14,4 C 14,1 C 10,8 C 72 % 80 % 1019,8 hPa 0,0 l/m 0,6 km/h (0 Bft) W 280 0 min
24.06.2018 03:20 14,1 C 14,0 C 10,8 C 74 % 80 % 1019,8 hPa 0,0 l/m 0,0 km/h (0 Bft) W 275 0 min
24.06.2018 03:25 14,0 C 13,9 C 10,8 C 75 % 81 % 1019,8 hPa 0,0 l/m 2,4 km/h (1 Bft) W-NW 290 0 min
24.06.2018 03:30 14,0 C 13,9 C 10,8 C 75 % 82 % 1020,8 hPa 0,0 l/m 2,4 km/h (1 Bft) W-NW 290 0 min
24.06.2018 03:35 14,0 C 13,8 C 10,8 C 75 % 82 % 1020,8 hPa 0,0 l/m 2,4 km/h (1 Bft) W-NW 290 0 min
24.06.2018 03:40 13,7 C 13,8 C 10,8 C 78 % 82 % 1020,8 hPa 0,0 l/m 0,0 km/h (0 Bft) W-NW 300 0 min
24.06.2018 03:45 13,7 C 13,8 C 10,8 C 78 % 83 % 1019,8 hPa 0,0 l/m 1,8 km/h (1 Bft) W-NW 290 0 min
24.06.2018 03:50 13,7 C 13,8 C 10,8 C 78 % 82 % 1019,8 hPa 0,0 l/m 1,8 km/h (1 Bft) W-NW 290 0 min
24.06.2018 03:55 13,6 C 13,7 C 10,8 C 78 % 82 % 1019,8 hPa 0,0 l/m 0,0 km/h (0 Bft) NO 40 0 min
24.06.2018 04:00 13,6 C 13,6 C 10,8 C 79 % 82 % 1020,8 hPa 0,0 l/m 0,0 km/h (0 Bft) O-NO 75 0 min
24.06.2018 04:05 13,6 C 13,6 C 10,8 C 79 % 82 % 1020,8 hPa 0,0 l/m 0,0 km/h (0 Bft) N-NO 30 0 min
24.06.2018 04:10 13,6 C 13,4 C 10,8 C 79 % 82 % 1020,8 hPa 0,0 l/m 0,0 km/h (0 Bft) N 5 0 min
24.06.2018 04:15 13,4 C 13,3 C 10,8 C 79 % 83 % 1019,8 hPa 0,0 l/m 0,0 km/h (0 Bft) N-NO 15 0 min
24.06.2018 04:20 13,3 C 13,3 C 10,8 C 79 % 84 % 1019,8 hPa 0,0 l/m 0,0 km/h (0 Bft) N 350 0 min
24.06.2018 04:25 13,4 C 13,3 C 10,8 C 80 % 84 % 1019,8 hPa 0,0 l/m 0,0 km/h (0 Bft) N-NW 330 0 min
24.06.2018 04:30 13,3 C 13,3 C 10,8 C 79 % 84 % 1019,8 hPa 0,0 l/m 1,8 km/h (1 Bft) N 0 0 min
24.06.2018 04:35 13,3 C 13,3 C 10,8 C 79 % 84 % 1019,8 hPa 0,0 l/m 4,8 km/h (1 Bft) N-NO 15 0 min
24.06.2018 04:40 13,3 C 13,3 C 10,8 C 79 % 84 % 1019,8 hPa 0,0 l/m 2,4 km/h (1 Bft) N-NO 15 0 min
24.06.2018 04:45 13,3 C 13,3 C 10,8 C 79 % 84 % 1019,8 hPa 0,0 l/m 6,1 km/h (2 Bft) N 10 0 min
24.06.2018 04:50 13,3 C 13,3 C 10,8 C 79 % 83 % 1019,8 hPa 0,0 l/m 3,6 km/h (1 Bft) N-NO 25 0 min
24.06.2018 04:55 13,3 C 13,3 C 10,8 C 79 % 83 % 1019,8 hPa 0,0 l/m 6,1 km/h (2 Bft) NO 55 0 min
24.06.2018 05:00 13,3 C 13,4 C 10,8 C 79 % 84 % 1019,8 hPa 0,0 l/m 8,5 km/h (2 Bft) N 10 0 min
24.06.2018 05:05 13,3 C 13,4 C 10,8 C 79 % 83 % 1019,8 hPa 0,0 l/m 8,5 km/h (2 Bft) N-NO 15 0 min
24.06.2018 05:10 13,3 C 13,4 C 10,8 C 79 % 84 % 1019,8 hPa 0,0 l/m 5,4 km/h (2 Bft) N-NO 15 0 min
24.06.2018 05:15 13,3 C 13,4 C 10,8 C 79 % 84 % 1019,8 hPa 0,0 l/m 4,8 km/h (1 Bft) N 10 0 min
24.06.2018 05:20 13,3 C 13,4 C 10,8 C 79 % 84 % 1019,8 hPa 0,0 l/m 2,4 km/h (1 Bft) N 5 0 min
24.06.2018 05:25 13,2 C 13,3 C 10,8 C 80 % 84 % 1019,8 hPa 0,0 l/m 4,2 km/h (1 Bft) N 10 0 min
24.06.2018 05:30 13,1 C 13,3 C 10,8 C 80 % 84 % 1019,8 hPa 0,0 l/m 4,8 km/h (1 Bft) NO 35 0 min
24.06.2018 05:35 13,1 C 13,3 C 10,8 C 80 % 84 % 1019,8 hPa 0,0 l/m 1,8 km/h (1 Bft) N-NW 335 0 min
24.06.2018 05:40 13,1 C 13,2 C 10,8 C 80 % 84 % 1019,8 hPa 0,0 l/m 2,4 km/h (1 Bft) N 5 0 min
24.06.2018 05:45 13,0 C 13,2 C 10,8 C 80 % 84 % 1019,8 hPa 0,0 l/m 1,2 km/h (1 Bft) W-NW 285 0 min
24.06.2018 05:50 12,8 C 13,0 C 10,8 C 81 % 84 % 1019,8 hPa 0,0 l/m 0,0 km/h (0 Bft) W-SW 240 0 min
24.06.2018 05:55 12,7 C 13,0 C 10,8 C 81 % 84 % 1019,8 hPa 0,0 l/m 0,0 km/h (0 Bft) S 180 0 min
24.06.2018 06:00 12,6 C 12,9 C 10,8 C 82 % 84 % 1020,8 hPa 0,0 l/m 0,0 km/h (0 Bft) SO 130 0 min
24.06.2018 06:05 12,6 C 12,8 C 10,8 C 82 % 84 % 1020,8 hPa 0,0 l/m 0,0 km/h (0 Bft) N-NO 30 0 min
24.06.2018 06:10 12,6 C 12,9 C 10,8 C 82 % 85 % 1020,8 hPa 0,0 l/m 0,0 km/h (0 Bft) S-SO 155 0 min
24.06.2018 06:15 12,7 C 12,9 C 10,8 C 82 % 85 % 1019,8 hPa 0,0 l/m 1,2 km/h (1 Bft) N 0 0 min
24.06.2018 06:20 12,7 C 12,9 C 10,8 C 82 % 86 % 1019,8 hPa 0,0 l/m 2,4 km/h (1 Bft) N 10 0 min
24.06.2018 06:25 12,8 C 12,9 C 10,8 C 82 % 86 % 1019,8 hPa 0,0 l/m 1,8 km/h (1 Bft) N 0 0 min
24.06.2018 06:30 12,8 C 12,9 C 10,8 C 82 % 86 % 1020,8 hPa 0,0 l/m 3,6 km/h (1 Bft) N-NO 20 0 min
24.06.2018 06:35 12,8 C 12,9 C 10,8 C 82 % 86 % 1020,8 hPa 0,0 l/m 1,2 km/h (1 Bft) NW 310 0 min
24.06.2018 06:40 12,8 C 12,9 C 10,8 C 82 % 86 % 1020,8 hPa 0,0 l/m 1,2 km/h (1 Bft) N 355 0 min
24.06.2018 06:45 12,9 C 12,9 C 10,8 C 82 % 86 % 1019,8 hPa 0,0 l/m 2,4 km/h (1 Bft) N-NO 25 0 min
24.06.2018 06:50 13,1 C 13,0 C 10,8 C 81 % 86 % 1019,8 hPa 0,0 l/m 3,6 km/h (1 Bft) N-NO 20 0 min
24.06.2018 06:55 13,2 C 13,0 C 10,8 C 81 % 86 % 1019,8 hPa 0,0 l/m 1,2 km/h (1 Bft) N 0 0 min
24.06.2018 07:00 13,3 C 13,1 C 10,8 C 81 % 86 % 1020,8 hPa 0,0 l/m 3,6 km/h (1 Bft) N-NO 15 0 min
24.06.2018 07:05 13,4 C 13,3 C 10,8 C 81 % 86 % 1020,8 hPa 0,0 l/m 2,4 km/h (1 Bft) W-NW 300 0 min
24.06.2018 07:10 13,7 C 13,4 C 10,8 C 80 % 86 % 1020,8 hPa 0,0 l/m 1,8 km/h (1 Bft) W-NW 300 0 min
24.06.2018 07:15 13,8 C 13,4 C 10,8 C 80 % 86 % 1019,8 hPa 0,0 l/m 2,4 km/h (1 Bft) N-NW 335 0 min
24.06.2018 07:20 14,0 C 13,6 C 10,8 C 79 % 85 % 1019,8 hPa 0,0 l/m 6,1 km/h (2 Bft) N-NW 340 0 min
24.06.2018 07:25 14,0 C 13,6 C 10,8 C 78 % 84 % 1019,8 hPa 0,0 l/m 2,4 km/h (1 Bft) NW 325 0 min
24.06.2018 07:30 13,9 C 13,6 C 10,8 C 78 % 84 % 1020,8 hPa 0,0 l/m 1,8 km/h (1 Bft) N-NO 20 0 min
24.06.2018 07:35 13,9 C 13,6 C 10,8 C 78 % 84 % 1020,8 hPa 0,0 l/m 5,4 km/h (2 Bft) NO 35 0 min
24.06.2018 07:40 14,0 C 13,7 C 10,8 C 77 % 83 % 1020,8 hPa 0,0 l/m 2,4 km/h (1 Bft) N 5 0 min
24.06.2018 07:45 14,1 C 13,8 C 10,8 C 78 % 83 % 1019,8 hPa 0,0 l/m 1,8 km/h (1 Bft) W-NW 285 3 min
24.06.2018 07:50 14,6 C 14,0 C 10,8 C 76 % 83 % 1019,8 hPa 0,0 l/m 8,5 km/h (2 Bft) W-NW 285 7 min
24.06.2018 07:55 14,6 C 14,2 C 10,8 C 75 % 82 % 1019,8 hPa 0,0 l/m 6,7 km/h (2 Bft) NO 35 4 min
24.06.2018 08:00 14,7 C 14,2 C 10,8 C 73 % 80 % 1019,8 hPa 0,0 l/m 10,9 km/h (2 Bft) N-NO 25 4 min
24.06.2018 08:05 14,8 C 14,4 C 10,8 C 72 % 80 % 1019,7 hPa 0,0 l/m 10,9 km/h (2 Bft) N-NO 20 1 min
24.06.2018 08:10 14,7 C 14,5 C 10,8 C 71 % 77 % 1019,7 hPa 0,0 l/m 10,9 km/h (2 Bft) NO 40 4 min
24.06.2018 08:15 14,7 C 14,6 C 10,8 C 71 % 76 % 1019,7 hPa 0,0 l/m 9,1 km/h (2 Bft) N-NO 30 0 min
24.06.2018 08:20 15,0 C 14,8 C 10,8 C 70 % 76 % 1019,7 hPa 0,0 l/m 12,1 km/h (2 Bft) N-NO 20 0 min
24.06.2018 08:25 15,1 C 14,8 C 10,8 C 69 % 75 % 1019,7 hPa 0,0 l/m 5,4 km/h (2 Bft) NO 40 0 min
24.06.2018 08:30 15,1 C 14,8 C 10,8 C 69 % 74 % 1019,7 hPa 0,0 l/m 7,3 km/h (2 Bft) N-NO 15 0 min
24.06.2018 08:35 15,0 C 14,8 C 10,8 C 69 % 75 % 1019,7 hPa 0,0 l/m 6,1 km/h (2 Bft) NW 315 0 min
24.06.2018 08:40 15,0 C 14,8 C 10,8 C 69 % 74 % 1019,7 hPa 0,0 l/m 12,7 km/h (3 Bft) N 5 0 min
24.06.2018 08:45 15,0 C 14,9 C 10,8 C 68 % 73 % 1020,7 hPa 0,0 l/m 11,5 km/h (2 Bft) W 270 0 min
24.06.2018 08:50 15,0 C 14,9 C 10,8 C 68 % 73 % 1020,7 hPa 0,0 l/m 8,5 km/h (2 Bft) NW 310 0 min
24.06.2018 08:55 14,7 C 14,8 C 10,8 C 68 % 73 % 1020,7 hPa 0,0 l/m 13,3 km/h (3 Bft) NO 40 0 min
24.06.2018 09:00 14,8 C 14,8 C 10,8 C 68 % 73 % 1020,7 hPa 0,0 l/m 10,9 km/h (2 Bft) NO 35 0 min
24.06.2018 09:05 15,0 C 14,9 C 10,8 C 68 % 73 % 1020,7 hPa 0,0 l/m 7,9 km/h (2 Bft) W-SW 250 0 min
24.06.2018 09:10 14,7 C 15,0 C 10,8 C 68 % 72 % 1020,7 hPa 0,0 l/m 17,6 km/h (3 Bft) N 0 0 min
24.06.2018 09:15 14,9 C 15,0 C 10,8 C 68 % 72 % 1020,7 hPa 0,0 l/m 15,1 km/h (3 Bft) N-NO 15 0 min
24.06.2018 09:20 14,9 C 15,1 C 10,8 C 68 % 72 % 1020,7 hPa 0,0 l/m 14,5 km/h (3 Bft) N-NO 15 4 min
24.06.2018 09:25 15,2 C 15,2 C 10,8 C 67 % 71 % 1020,7 hPa 0,0 l/m 15,1 km/h (3 Bft) NO 40 6 min
24.06.2018 09:30 14,9 C 15,2 C 10,8 C 67 % 70 % 1020,7 hPa 0,0 l/m 21,8 km/h (4 Bft) NO 35 4 min
24.06.2018 09:35 15,1 C 15,3 C 10,8 C 67 % 71 % 1020,7 hPa 0,0 l/m 15,7 km/h (3 Bft) N 10 6 min
24.06.2018 09:40 15,3 C 15,4 C 10,8 C 66 % 70 % 1020,7 hPa 0,0 l/m 13,3 km/h (3 Bft) W 275 5 min
24.06.2018 09:45 15,3 C 15,4 C 10,8 C 66 % 70 % 1020,7 hPa 0,0 l/m 15,7 km/h (3 Bft) N 350 5 min
24.06.2018 09:50 15,3 C 15,4 C 10,8 C 65 % 70 % 1020,7 hPa 0,0 l/m 18,8 km/h (3 Bft) NW 325 5 min
24.06.2018 09:55 15,3 C 15,4 C 10,8 C 65 % 69 % 1020,7 hPa 0,0 l/m 18,8 km/h (3 Bft) NW 325 0 min
24.06.2018 10:00 15,3 C 15,5 C 10,8 C 65 % 69 % 1020,7 hPa 0,0 l/m 18,8 km/h (3 Bft) NW 325 0 min
24.06.2018 10:05 16,0 C 15,6 C 10,8 C 64 % 70 % 1020,7 hPa 0,0 l/m 7,3 km/h (2 Bft) N-NW 335 15 min
24.06.2018 10:10 16,0 C 15,9 C 10,8 C 64 % 69 % 1020,7 hPa 0,0 l/m 7,3 km/h (2 Bft) N-NW 335 0 min
24.06.2018 10:15 16,3 C 16,0 C 10,8 C 63 % 69 % 1020,7 hPa 0,0 l/m 9,1 km/h (2 Bft) W-NW 300 10 min
24.06.2018 10:20 16,3 C 16,0 C 10,8 C 63 % 68 % 1020,7 hPa 0,0 l/m 9,1 km/h (2 Bft) W-NW 300 0 min
24.06.2018 10:25 16,3 C 16,1 C 10,8 C 63 % 69 % 1020,7 hPa 0,0 l/m 19,4 km/h (3 Bft) NW 305 8 min
24.06.2018 10:30 16,5 C 16,2 C 10,8 C 63 % 69 % 1020,7 hPa 0,0 l/m 18,2 km/h (3 Bft) W 280 5 min
24.06.2018 10:35 16,6 C 16,2 C 10,8 C 63 % 69 % 1020,7 hPa 0,0 l/m 12,1 km/h (2 Bft) O-NO 60 6 min
24.06.2018 10:40 16,5 C 16,2 C 10,8 C 63 % 69 % 1020,7 hPa 0,0 l/m 13,9 km/h (3 Bft) W-NW 285 5 min
24.06.2018 10:45 16,3 C 16,2 C 10,8 C 63 % 68 % 1020,7 hPa 0,0 l/m 16,9 km/h (3 Bft) N 5 3 min
24.06.2018 10:50 16,6 C 16,3 C 10,8 C 62 % 68 % 1020,7 hPa 0,0 l/m 12,1 km/h (2 Bft) N-NO 25 4 min
24.06.2018 10:55 16,6 C 16,4 C 10,8 C 62 % 68 % 1020,7 hPa 0,0 l/m 13,9 km/h (3 Bft) N 10 3 min
24.06.2018 11:00 16,7 C 16,5 C 10,8 C 61 % 67 % 1020,7 hPa 0,0 l/m 13,3 km/h (3 Bft) W-NW 300 5 min
24.06.2018 11:05 16,3 C 16,5 C 10,8 C 60 % 67 % 1020,7 hPa 0,0 l/m 13,3 km/h (3 Bft) N 10 5 min
24.06.2018 11:10 16,8 C 16,6 C 10,8 C 60 % 65 % 1020,7 hPa 0,0 l/m 14,5 km/h (3 Bft) N 10 2 min
24.06.2018 11:15 16,8 C 16,7 C 10,8 C 60 % 65 % 1020,7 hPa 0,0 l/m 10,9 km/h (2 Bft) NW 305 2 min
24.06.2018 11:20 16,8 C 16,6 C 10,8 C 59 % 65 % 1020,7 hPa 0,0 l/m 12,1 km/h (2 Bft) W-NW 290 6 min
24.06.2018 11:25 16,5 C 16,7 C 10,8 C 58 % 64 % 1020,7 hPa 0,0 l/m 10,9 km/h (2 Bft) NW 320 4 min
24.06.2018 11:30 16,7 C 16,7 C 10,8 C 58 % 62 % 1019,7 hPa 0,0 l/m 21,2 km/h (4 Bft) NW 310 4 min
24.06.2018 11:35 17,0 C 16,9 C 10,8 C 57 % 62 % 1019,7 hPa 0,0 l/m 15,1 km/h (3 Bft) W 280 5 min
24.06.2018 11:40 17,2 C 17,0 C 10,8 C 56 % 62 % 1019,7 hPa 0,0 l/m 20,0 km/h (4 Bft) W-NW 285 6 min
24.06.2018 11:45 17,7 C 17,1 C 10,8 C 55 % 60 % 1020,7 hPa 0,0 l/m 9,7 km/h (2 Bft) N-NO 20 5 min
24.06.2018 11:50 17,5 C 17,4 C 10,8 C 54 % 60 % 1020,7 hPa 0,0 l/m 12,1 km/h (2 Bft) NW 310 4 min
24.06.2018 11:55 17,2 C 17,3 C 10,8 C 56 % 61 % 1020,7 hPa 0,0 l/m 18,2 km/h (3 Bft) N 10 3 min
24.06.2018 12:00 17,5 C 17,3 C 10,8 C 56 % 61 % 1020,7 hPa 0,0 l/m 23,6 km/h (4 Bft) W-NW 300 3 min
24.06.2018 12:05 17,4 C 17,3 C 10,8 C 55 % 61 % 1020,7 hPa 0,0 l/m 14,5 km/h (3 Bft) N-NW 340 5 min
24.06.2018 12:10 17,8 C 17,4 C 10,8 C 54 % 60 % 1020,7 hPa 0,0 l/m 15,7 km/h (3 Bft) NW 315 4 min
24.06.2018 12:15 17,5 C 17,5 C 10,8 C 51 % 57 % 1019,7 hPa 0,0 l/m 16,9 km/h (3 Bft) N 5 5 min
24.06.2018 12:20 17,6 C 17,5 C 10,8 C 52 % 56 % 1019,7 hPa 0,0 l/m 20,6 km/h (4 Bft) NW 310 4 min
24.06.2018 12:25 17,5 C 17,6 C 10,8 C 51 % 57 % 1019,7 hPa 0,0 l/m 15,7 km/h (3 Bft) NO 40 5 min
24.06.2018 12:30 18,1 C 17,8 C 10,8 C 52 % 57 % 1020,7 hPa 0,0 l/m 9,7 km/h (2 Bft) W-NW 290 1 min
24.06.2018 12:35 18,3 C 17,8 C 10,8 C 50 % 56 % 1020,7 hPa 0,0 l/m 9,7 km/h (2 Bft) N 355 3 min
24.06.2018 12:40 18,3 C 17,8 C 10,8 C 50 % 56 % 1020,7 hPa 0,0 l/m 15,7 km/h (3 Bft) N 10 5 min
24.06.2018 12:45 17,9 C 17,9 C 10,8 C 52 % 57 % 1020,7 hPa 0,0 l/m 18,2 km/h (3 Bft) N 0 1 min
24.06.2018 12:50 18,0 C 17,8 C 10,8 C 52 % 57 % 1020,7 hPa 0,0 l/m 16,3 km/h (3 Bft) NW 305 4 min
24.06.2018 12:55 18,1 C 17,8 C 10,8 C 51 % 57 % 1020,7 hPa 0,0 l/m 21,2 km/h (4 Bft) N 10 5 min
24.06.2018 13:00 18,2 C 18,0 C 10,8 C 51 % 57 % 1020,7 hPa 0,0 l/m 21,8 km/h (4 Bft) N 10 4 min
24.06.2018 13:05 18,0 C 18,2 C 10,8 C 52 % 57 % 1020,7 hPa 0,0 l/m 20,6 km/h (4 Bft) NO 45 3 min
24.06.2018 13:10 18,6 C 18,3 C 10,8 C 52 % 58 % 1020,7 hPa 0,0 l/m 12,1 km/h (2 Bft) W-NW 300 3 min
24.06.2018 13:15 18,7 C 18,3 C 10,8 C 52 % 57 % 1020,7 hPa 0,0 l/m 12,7 km/h (3 Bft) O 100 4 min
24.06.2018 13:20 18,7 C 18,2 C 10,8 C 51 % 58 % 1020,7 hPa 0,0 l/m 10,9 km/h (2 Bft) NW 315 0 min
24.06.2018 13:25 18,5 C 18,1 C 10,8 C 50 % 56 % 1020,7 hPa 0,0 l/m 20,0 km/h (4 Bft) N-NW 330 2 min
24.06.2018 13:30 18,0 C 17,9 C 10,8 C 51 % 55 % 1020,7 hPa 0,0 l/m 16,3 km/h (3 Bft) S-SW 200 4 min
24.06.2018 13:35 18,4 C 18,1 C 10,8 C 51 % 56 % 1020,7 hPa 0,0 l/m 15,7 km/h (3 Bft) O-SO 105 5 min
24.06.2018 13:40 18,5 C 18,2 C 10,8 C 50 % 56 % 1020,7 hPa 0,0 l/m 16,3 km/h (3 Bft) W-SW 255 4 min
24.06.2018 13:45 18,7 C 18,4 C 10,8 C 49 % 56 % 1020,7 hPa 0,0 l/m 18,2 km/h (3 Bft) N-NO 20 5 min
24.06.2018 13:50 18,9 C 18,7 C 10,8 C 50 % 55 % 1020,7 hPa 0,0 l/m 16,3 km/h (3 Bft) S 170 5 min
24.06.2018 13:55 19,1 C 18,7 C 10,8 C 50 % 56 % 1020,7 hPa 0,0 l/m 10,3 km/h (2 Bft) O 100 1 min
24.06.2018 14:00 19,1 C 18,8 C 10,8 C 50 % 55 % 1020,7 hPa 0,0 l/m 19,4 km/h (3 Bft) W 270 1 min
24.06.2018 14:05 19,1 C 18,8 C 10,8 C 49 % 54 % 1020,7 hPa 0,0 l/m 10,9 km/h (2 Bft) W 280 2 min
24.06.2018 14:10 19,8 C 18,8 C 10,8 C 49 % 55 % 1020,7 hPa 0,0 l/m 12,7 km/h (3 Bft) N 10 6 min
24.06.2018 14:15 20,0 C 19,2 C 10,8 C 49 % 55 % 1020,7 hPa 0,0 l/m 10,3 km/h (2 Bft) NO 55 1 min
24.06.2018 14:20 19,5 C 19,1 C 10,8 C 49 % 55 % 1020,7 hPa 0,0 l/m 16,3 km/h (3 Bft) N 0 5 min
24.06.2018 14:25 18,9 C 19,0 C 10,8 C 50 % 55 % 1020,7 hPa 0,0 l/m 15,7 km/h (3 Bft) N-NO 30 4 min
24.06.2018 14:30 18,7 C 18,8 C 10,8 C 50 % 55 % 1020,7 hPa 0,0 l/m 16,9 km/h (3 Bft) N 0 6 min
24.06.2018 14:35 18,3 C 18,7 C 10,8 C 51 % 56 % 1020,7 hPa 0,0 l/m 20,6 km/h (4 Bft) N-NW 330 4 min
24.06.2018 14:40 18,5 C 18,7 C 10,8 C 52 % 58 % 1020,7 hPa 0,0 l/m 13,9 km/h (3 Bft) NO 40 5 min
24.06.2018 14:45 18,4 C 18,6 C 10,8 C 53 % 58 % 1019,7 hPa 0,0 l/m 16,3 km/h (3 Bft) W 275 5 min
24.06.2018 14:50 18,6 C 18,5 C 10,8 C 54 % 58 % 1019,7 hPa 0,0 l/m 15,1 km/h (3 Bft) N-NO 20 3 min
24.06.2018 14:55 18,2 C 18,5 C 10,8 C 54 % 59 % 1019,7 hPa 0,0 l/m 14,5 km/h (3 Bft) NO 50 2 min
24.06.2018 15:00 18,1 C 18,5 C 10,8 C 54 % 59 % 1019,7 hPa 0,0 l/m 20,0 km/h (4 Bft) NW 325 3 min
24.06.2018 15:05 18,3 C 18,4 C 10,8 C 54 % 59 % 1019,7 hPa 0,0 l/m 14,5 km/h (3 Bft) NW 315 5 min
24.06.2018 15:10 18,5 C 18,4 C 10,8 C 55 % 61 % 1019,7 hPa 0,0 l/m 13,9 km/h (3 Bft) W-NW 290 4 min
24.06.2018 15:15 18,0 C 18,2 C 10,8 C 55 % 61 % 1019,7 hPa 0,0 l/m 15,7 km/h (3 Bft) NW 325 3 min
24.06.2018 15:20 18,3 C 18,2 C 10,8 C 56 % 61 % 1019,7 hPa 0,0 l/m 13,3 km/h (3 Bft) NW 310 0 min
24.06.2018 15:25 17,9 C 18,2 C 10,8 C 56 % 62 % 1019,7 hPa 0,0 l/m 15,1 km/h (3 Bft) W-NW 295 0 min
24.06.2018 15:30 18,0 C 18,1 C 10,8 C 57 % 61 % 1020,7 hPa 0,0 l/m 13,3 km/h (3 Bft) W-NW 295 0 min
24.06.2018 15:35 18,1 C 18,1 C 10,8 C 57 % 62 % 1020,7 hPa 0,0 l/m 19,4 km/h (3 Bft) N-NW 340 0 min
24.06.2018 15:40 18,0 C 18,1 C 10,8 C 56 % 62 % 1020,7 hPa 0,0 l/m 15,1 km/h (3 Bft) O-SO 115 0 min
24.06.2018 15:45 18,1 C 18,1 C 10,8 C 57 % 63 % 1020,7 hPa 0,0 l/m 13,9 km/h (3 Bft) N-NW 335 0 min
24.06.2018 15:50 17,8 C 18,1 C 10,8 C 58 % 63 % 1020,7 hPa 0,0 l/m 19,4 km/h (3 Bft) W 260 0 min
24.06.2018 15:55 18,1 C 18,2 C 10,8 C 58 % 64 % 1020,7 hPa 0,0 l/m 16,3 km/h (3 Bft) W-NW 285 3 min
24.06.2018 16:00 18,1 C 18,2 C 10,8 C 58 % 63 % 1019,7 hPa 0,0 l/m 15,7 km/h (3 Bft) W-SW 240 4 min
24.06.2018 16:05 18,0 C 18,2 C 10,8 C 57 % 63 % 1019,7 hPa 0,0 l/m 16,9 km/h (3 Bft) NW 305 3 min
24.06.2018 16:10 18,2 C 18,2 C 10,8 C 58 % 63 % 1019,7 hPa 0,0 l/m 15,1 km/h (3 Bft) W-NW 295 5 min
24.06.2018 16:15 18,3 C 18,3 C 10,8 C 57 % 63 % 1019,7 hPa 0,0 l/m 21,8 km/h (4 Bft) W-NW 290 5 min
24.06.2018 16:20 18,2 C 18,3 C 10,8 C 57 % 63 % 1019,7 hPa 0,0 l/m 15,7 km/h (3 Bft) W 265 1 min
24.06.2018 16:25 18,2 C 18,3 C 10,8 C 58 % 63 % 1019,7 hPa 0,0 l/m 9,1 km/h (2 Bft) W 260 0 min
24.06.2018 16:30 18,2 C 18,2 C 10,8 C 59 % 64 % 1019,7 hPa 0,0 l/m 10,3 km/h (2 Bft) NO 35 0 min
24.06.2018 16:35 18,2 C 18,2 C 10,8 C 59 % 64 % 1019,7 hPa 0,0 l/m 13,3 km/h (3 Bft) W-NW 300 0 min
24.06.2018 16:40 18,0 C 18,1 C 10,8 C 59 % 64 % 1019,7 hPa 0,0 l/m 12,1 km/h (2 Bft) N-NO 25 0 min
24.06.2018 16:45 18,0 C 18,0 C 10,8 C 59 % 65 % 1019,7 hPa 0,0 l/m 12,1 km/h (2 Bft) W-NW 300 0 min
24.06.2018 16:50 17,8 C 17,9 C 10,8 C 61 % 66 % 1019,7 hPa 0,0 l/m 18,8 km/h (3 Bft) N-NW 345 0 min
24.06.2018 16:55 17,7 C 17,8 C 10,8 C 61 % 66 % 1019,7 hPa 0,0 l/m 13,3 km/h (3 Bft) NO 35 0 min
24.06.2018 17:00 17,6 C 17,8 C 10,8 C 62 % 67 % 1019,7 hPa 0,0 l/m 25,4 km/h (4 Bft) NW 320 0 min
24.06.2018 17:05 17,8 C 17,8 C 10,8 C 61 % 66 % 1019,7 hPa 0,0 l/m 11,5 km/h (2 Bft) N 350 0 min
24.06.2018 17:10 17,9 C 17,9 C 10,8 C 61 % 66 % 1019,7 hPa 0,0 l/m 18,8 km/h (3 Bft) N-NO 20 0 min
24.06.2018 17:15 18,0 C 18,0 C 10,8 C 60 % 66 % 1019,7 hPa 0,0 l/m 8,5 km/h (2 Bft) N 5 0 min
24.06.2018 17:20 18,2 C 18,1 C 10,8 C 60 % 66 % 1019,7 hPa 0,0 l/m 13,9 km/h (3 Bft) W 280 0 min
24.06.2018 17:25 18,3 C 18,1 C 10,8 C 61 % 66 % 1019,7 hPa 0,0 l/m 21,2 km/h (4 Bft) NW 315 4 min
24.06.2018 17:30 18,1 C 18,2 C 10,8 C 60 % 66 % 1019,7 hPa 0,0 l/m 16,9 km/h (3 Bft) NW 305 2 min
24.06.2018 17:35 18,1 C 18,2 C 10,8 C 61 % 65 % 1019,7 hPa 0,0 l/m 16,9 km/h (3 Bft) N-NW 335 0 min
24.06.2018 17:40 18,0 C 18,2 C 10,8 C 61 % 66 % 1019,7 hPa 0,0 l/m 18,2 km/h (3 Bft) NW 305 0 min
24.06.2018 17:45 17,9 C 18,1 C 10,8 C 61 % 66 % 1019,7 hPa 0,0 l/m 21,8 km/h (4 Bft) NO 55 0 min
24.06.2018 17:50 17,9 C 18,1 C 10,8 C 61 % 66 % 1019,7 hPa 0,0 l/m 14,5 km/h (3 Bft) NW 315 0 min
24.06.2018 17:55 17,6 C 18,0 C 10,8 C 62 % 66 % 1019,7 hPa 0,0 l/m 19,4 km/h (3 Bft) N-NO 30 0 min
24.06.2018 18:00 17,4 C 17,9 C 10,8 C 63 % 68 % 1019,7 hPa 0,0 l/m 20,0 km/h (4 Bft) N 350 0 min
24.06.2018 18:05 17,4 C 17,6 C 10,8 C 65 % 69 % 1019,7 hPa 0,0 l/m 11,5 km/h (2 Bft) N 350 0 min
24.06.2018 18:10 17,4 C 17,6 C 10,8 C 65 % 68 % 1019,7 hPa 0,0 l/m 12,1 km/h (2 Bft) N-NO 25 0 min
24.06.2018 18:15 17,5 C 17,6 C 10,8 C 64 % 68 % 1019,7 hPa 0,0 l/m 10,9 km/h (2 Bft) N-NW 345 0 min
24.06.2018 18:20 17,4 C 17,6 C 10,8 C 63 % 68 % 1019,7 hPa 0,0 l/m 13,3 km/h (3 Bft) N 355 0 min
24.06.2018 18:25 17,5 C 17,6 C 10,8 C 64 % 69 % 1019,7 hPa 0,0 l/m 10,3 km/h (2 Bft) NW 315 0 min
24.06.2018 18:30 17,5 C 17,6 C 10,8 C 64 % 69 % 1019,7 hPa 0,0 l/m 13,3 km/h (3 Bft) W 280 0 min
24.06.2018 18:35 17,5 C 17,5 C 10,8 C 64 % 69 % 1019,7 hPa 0,0 l/m 9,7 km/h (2 Bft) NO 55 0 min
24.06.2018 18:40 17,4 C 17,6 C 10,8 C 65 % 70 % 1019,7 hPa 0,0 l/m 13,9 km/h (3 Bft) NW 325 0 min
24.06.2018 18:45 17,6 C 17,6 C 10,8 C 64 % 69 % 1019,7 hPa 0,0 l/m 7,9 km/h (2 Bft) NW 325 0 min
24.06.2018 18:50 17,6 C 17,5 C 10,8 C 63 % 68 % 1019,7 hPa 0,0 l/m 14,5 km/h (3 Bft) NW 315 0 min
24.06.2018 18:55 17,5 C 17,6 C 10,8 C 63 % 68 % 1019,7 hPa 0,0 l/m 12,7 km/h (3 Bft) N-NO 25 0 min
24.06.2018 19:00 17,5 C 17,6 C 10,8 C 63 % 67 % 1019,7 hPa 0,0 l/m 18,2 km/h (3 Bft) N-NO 20 0 min
24.06.2018 19:05 17,3 C 17,5 C 10,8 C 64 % 68 % 1019,7 hPa 0,0 l/m 15,7 km/h (3 Bft) O 95 0 min
24.06.2018 19:10 17,0 C 17,5 C 10,8 C 65 % 69 % 1019,7 hPa 0,0 l/m 21,8 km/h (4 Bft) W-NW 285 0 min
24.06.2018 19:15 16,9 C 17,2 C 10,8 C 66 % 70 % 1019,7 hPa 0,0 l/m 12,7 km/h (3 Bft) W-NW 290 0 min
24.06.2018 19:20 16,9 C 17,1 C 10,8 C 66 % 71 % 1019,7 hPa 0,0 l/m 10,9 km/h (2 Bft) N 10 0 min
24.06.2018 19:25 16,8 C 17,1 C 10,8 C 67 % 71 % 1019,7 hPa 0,0 l/m 14,5 km/h (3 Bft) NO 45 0 min
24.06.2018 19:30 16,7 C 17,0 C 10,8 C 67 % 71 % 1019,7 hPa 0,0 l/m 8,5 km/h (2 Bft) N-NO 20 0 min
24.06.2018 19:35 16,7 C 17,0 C 10,8 C 68 % 71 % 1019,7 hPa 0,0 l/m 11,5 km/h (2 Bft) N-NO 25 0 min
24.06.2018 19:40 16,7 C 17,0 C 10,8 C 68 % 72 % 1019,7 hPa 0,0 l/m 7,9 km/h (2 Bft) W-NW 285 0 min
24.06.2018 19:45 16,8 C 17,0 C 10,8 C 67 % 72 % 1019,7 hPa 0,0 l/m 10,3 km/h (2 Bft) N-NO 30 0 min
24.06.2018 19:50 16,8 C 17,0 C 10,8 C 67 % 72 % 1019,7 hPa 0,0 l/m 10,3 km/h (2 Bft) NO 45 0 min
24.06.2018 19:55 16,9 C 17,0 C 10,8 C 67 % 72 % 1019,7 hPa 0,0 l/m 8,5 km/h (2 Bft) N-NO 15 0 min
24.06.2018 20:00 16,8 C 17,1 C 10,8 C 67 % 71 % 1019,7 hPa 0,0 l/m 13,9 km/h (3 Bft) N 5 0 min
24.06.2018 20:05 16,9 C 17,0 C 10,8 C 67 % 71 % 1019,7 hPa 0,0 l/m 13,3 km/h (3 Bft) NO 35 0 min
24.06.2018 20:10 16,9 C 17,1 C 10,8 C 67 % 71 % 1019,7 hPa 0,0 l/m 9,7 km/h (2 Bft) N-NW 345 0 min
24.06.2018 20:15 16,9 C 17,1 C 10,8 C 67 % 71 % 1019,7 hPa 0,0 l/m 12,1 km/h (2 Bft) O-NO 65 0 min
24.06.2018 20:20 17,0 C 17,1 C 10,8 C 67 % 71 % 1019,7 hPa 0,0 l/m 7,3 km/h (2 Bft) N 355 0 min
24.06.2018 20:25 16,9 C 17,1 C 10,8 C 67 % 71 % 1019,7 hPa 0,0 l/m 10,9 km/h (2 Bft) NO 35 0 min
24.06.2018 20:30 16,8 C 17,1 C 10,8 C 67 % 71 % 1019,7 hPa 0,0 l/m 9,7 km/h (2 Bft) NO 40 0 min
24.06.2018 20:35 16,8 C 17,0 C 10,8 C 67 % 71 % 1019,7 hPa 0,0 l/m 16,3 km/h (3 Bft) N 5 0 min
24.06.2018 20:40 16,8 C 17,0 C 10,8 C 67 % 71 % 1019,7 hPa 0,0 l/m 10,3 km/h (2 Bft) N-NO 20 0 min
24.06.2018 20:45 16,8 C 17,0 C 10,8 C 67 % 71 % 1019,7 hPa 0,0 l/m 12,1 km/h (2 Bft) N 355 0 min
24.06.2018 20:50 16,8 C 17,0 C 10,8 C 67 % 71 % 1019,7 hPa 0,0 l/m 12,1 km/h (2 Bft) N 355 0 min
24.06.2018 20:55 16,8 C 16,9 C 10,8 C 67 % 71 % 1019,7 hPa 0,0 l/m 12,1 km/h (2 Bft) N 355 0 min
24.06.2018 21:00 16,8 C 16,8 C 10,8 C 67 % 72 % 1019,7 hPa 0,0 l/m 12,1 km/h (2 Bft) N 355 0 min
24.06.2018 21:05 16,5 C 16,8 C 10,8 C 68 % 73 % 1019,7 hPa 0,0 l/m 14,5 km/h (3 Bft) N 350 0 min
24.06.2018 21:10 16,5 C 16,7 C 10,8 C 68 % 73 % 1019,7 hPa 0,0 l/m 14,5 km/h (3 Bft) N 350 0 min
24.06.2018 21:15 16,5 C 16,6 C 10,8 C 68 % 73 % 1019,7 hPa 0,0 l/m 14,5 km/h (3 Bft) N 350 0 min
24.06.2018 21:20 16,2 C 16,6 C 10,8 C 70 % 74 % 1019,7 hPa 0,0 l/m 19,4 km/h (3 Bft) N-NO 25 0 min
24.06.2018 21:25 16,2 C 16,5 C 10,8 C 70 % 74 % 1019,7 hPa 0,0 l/m 19,4 km/h (3 Bft) N-NW 345 0 min
24.06.2018 21:30 16,0 C 16,5 C 10,8 C 71 % 74 % 1019,7 hPa 0,0 l/m 11,5 km/h (2 Bft) NW 305 0 min
24.06.2018 21:35 15,6 C 16,1 C 10,8 C 74 % 78 % 1019,7 hPa 0,0 l/m 11,5 km/h (2 Bft) O 90 0 min
24.06.2018 21:40 15,3 C 15,8 C 10,8 C 76 % 80 % 1019,7 hPa 0,0 l/m 15,1 km/h (3 Bft) NW 320 0 min
24.06.2018 21:45 15,0 C 15,5 C 10,8 C 78 % 82 % 1019,7 hPa 0,0 l/m 14,5 km/h (3 Bft) NW 320 0 min
24.06.2018 21:50 14,8 C 15,4 C 10,8 C 80 % 82 % 1019,7 hPa 0,0 l/m 13,3 km/h (3 Bft) W-NW 300 0 min
24.06.2018 21:55 14,7 C 15,2 C 10,8 C 80 % 83 % 1019,7 hPa 0,0 l/m 7,9 km/h (2 Bft) W-NW 285 0 min
24.06.2018 22:00 14,7 C 15,2 C 10,8 C 80 % 83 % 1019,7 hPa 0,0 l/m 16,3 km/h (3 Bft) NW 310 0 min
24.06.2018 22:05 14,7 C 15,1 C 10,8 C 80 % 83 % 1019,7 hPa 0,0 l/m 16,3 km/h (3 Bft) NW 310 0 min
24.06.2018 22:10 14,7 C 15,0 C 10,8 C 80 % 83 % 1019,7 hPa 0,0 l/m 16,3 km/h (3 Bft) NW 310 0 min
24.06.2018 22:15 14,8 C 15,0 C 10,8 C 79 % 83 % 1020,7 hPa 0,0 l/m 12,7 km/h (3 Bft) W 275 0 min
24.06.2018 22:20 14,9 C 15,0 C 10,8 C 79 % 82 % 1020,7 hPa 0,0 l/m 16,3 km/h (3 Bft) O-NO 70 0 min
24.06.2018 22:25 14,9 C 15,0 C 10,8 C 78 % 82 % 1020,7 hPa 0,0 l/m 15,7 km/h (3 Bft) N 0 0 min
24.06.2018 22:30 15,0 C 15,0 C 10,8 C 77 % 81 % 1019,7 hPa 0,0 l/m 15,7 km/h (3 Bft) N-NW 345 0 min
24.06.2018 22:35 15,0 C 15,0 C 10,8 C 77 % 81 % 1019,7 hPa 0,0 l/m 18,8 km/h (3 Bft) S-SW 205 0 min
24.06.2018 22:40 15,0 C 15,1 C 10,8 C 77 % 82 % 1019,7 hPa 0,0 l/m 15,7 km/h (3 Bft) O-NO 75 0 min
24.06.2018 22:45 15,0 C 15,1 C 10,8 C 77 % 82 % 1019,7 hPa 0,0 l/m 11,5 km/h (2 Bft) N-NO 25 0 min
24.06.2018 22:50 15,0 C 15,1 C 10,8 C 78 % 82 % 1019,7 hPa 0,0 l/m 12,1 km/h (2 Bft) NO 45 0 min
24.06.2018 22:55 15,0 C 15,1 C 10,8 C 78 % 82 % 1019,7 hPa 0,0 l/m 13,3 km/h (3 Bft) N 0 0 min
24.06.2018 23:00 15,0 C 15,1 C 10,8 C 78 % 82 % 1019,7 hPa 0,0 l/m 10,3 km/h (2 Bft) NW 305 0 min
24.06.2018 23:05 14,9 C 15,1 C 10,8 C 79 % 82 % 1019,7 hPa 0,0 l/m 10,3 km/h (2 Bft) W-NW 290 0 min
24.06.2018 23:10 14,8 C 15,0 C 10,8 C 79 % 83 % 1019,7 hPa 0,0 l/m 11,5 km/h (2 Bft) W-SW 255 0 min
24.06.2018 23:15 14,8 C 15,0 C 10,8 C 79 % 83 % 1019,7 hPa 0,0 l/m 9,1 km/h (2 Bft) W-NW 285 0 min
24.06.2018 23:20 14,8 C 15,0 C 10,8 C 80 % 84 % 1019,7 hPa 0,0 l/m 10,3 km/h (2 Bft) W-NW 285 0 min
24.06.2018 23:25 14,8 C 15,0 C 10,8 C 80 % 84 % 1019,7 hPa 0,0 l/m 7,3 km/h (2 Bft) NW 305 0 min
24.06.2018 23:30 14,7 C 15,0 C 10,8 C 80 % 84 % 1019,7 hPa 0,0 l/m 16,3 km/h (3 Bft) W-NW 295 0 min
24.06.2018 23:35 14,7 C 14,9 C 10,8 C 81 % 85 % 1019,7 hPa 0,0 l/m 10,9 km/h (2 Bft) N-NW 330 0 min
24.06.2018 23:40 14,4 C 14,7 C 10,8 C 83 % 86 % 1019,7 hPa 0,0 l/m 8,5 km/h (2 Bft) W-SW 250 0 min
24.06.2018 23:45 14,2 C 14,6 C 10,8 C 84 % 86 % 1020,8 hPa 0,0 l/m 6,7 km/h (2 Bft) W 280 0 min
24.06.2018 23:50 14,2 C 14,5 C 10,8 C 84 % 87 % 1020,8 hPa 0,0 l/m 4,8 km/h (1 Bft) N 5 0 min
24.06.2018 23:55 14,0 C 14,4 C 10,8 C 85 % 88 % 1020,8 hPa 0,0 l/m 7,3 km/h (2 Bft) NW 310 0 min
_ Min-Zeit 06:00 06:05 00:00 13:45 14:05 14:45 - 00:55 - - -
Minimum _ 12,6 C 12,8 C 10,8 C 49 % 54 % 1019,7 hPa - 0,0 km/h (0 Bft) - - -
_ Max-Zeit 14:15 14:15 00:00 23:55 23:55 01:20 00:00 17:00 - - 10:05
Maximum _ 20,0 C 19,2 C 10,8 C 85 % 88 % 1021,8 hPa 0,0 l/m 25,4 km/h
NW (4 Bft)
- - 15 min
Durchschnitt _ 15,9 C 15,9 C 10,8 C 68 % 73 % 1020,2 hPa #0,0 l/m 10,0 km/h (2 Bft) N - #5:39 h